CW8440 Weather Reports


Display with metric or nautical units.
time (UTC)temp
F
wind
direction
speed
MPH
gust
MPH
rain 1hr
in
rain 24hr
in
rain mn
in
humidity
%
barometer
mb
20260505002012 47 227 4.0 8.0 0.00 0.00 0.00 80 1007.4
20260505001240 47 254 4.0 8.0 0.00 0.00 0.00 80 1007.3
20260505000741 47 224 3.0 8.0 0.00 0.00 0.00 81 1007.3
20260505000243 47 223 3.0 9.0 0.00 0.00 0.00 81 1007.2
20260504235738 47 211 5.0 9.0 0.00 0.00 0.00 81 1007.1
20260504235240 47 203 5.0 9.0 0.00 0.00 0.00 82 1007.1
20260504234739 46 193 4.0 9.0 0.00 0.00 0.00 83 1007.0
20260504234240 46 188 3.0 6.0 0.00 0.00 0.00 83 1007.0
20260504233738 46 200 2.0 4.0 0.00 0.00 0.00 82 1006.9
20260504232739 47 175 1.0 5.0 0.00 0.00 0.00 80 1006.5
20260504232240 47 165 1.0 4.0 0.00 0.00 0.00 79 1006.6
20260504231740 48 186 2.0 10.0 0.00 0.00 0.00 77 1006.5
20260504231241 49 202 2.0 10.0 0.00 0.00 0.00 75 1006.5
20260504230739 50 186 2.0 11.0 0.00 0.00 0.00 74 1006.4
20260504230239 52 174 3.0 11.0 0.00 0.00 0.00 72 1006.3
20260504225738 53 214 3.0 6.0 0.00 0.00 0.00 71 1006.1
20260504224738 53 210 3.0 6.0 0.00 0.00 0.00 71 1006.1
20260504224240 53 213 3.0 6.0 0.00 0.00 0.00 71 1006.1
20260504223740 53 199 3.0 8.0 0.00 0.00 0.00 71 1006.0
20260504223239 53 223 2.0 8.0 0.00 0.00 0.00 70 1006.1
20260504222741 54 230 3.0 8.0 0.00 0.00 0.00 68 1006.1
20260504222509 54 215 4.0 8.0 0.00 0.00 0.00 66 1006.0
20260504221739 55 225 3.0 8.0 0.00 0.00 0.00 65 1006.0
20260504221240 55 239 3.0 8.0 0.00 0.00 0.00 65 1006.0
20260504220739 55 248 4.0 9.0 0.00 0.00 0.00 64 1005.8
20260504220510 55 191 3.0 9.0 0.00 0.00 0.00 65 1005.8
20260504220010 56 206 4.0 11.0 0.00 0.00 0.00 64 1005.7
20260504215240 56 249 4.0 11.0 0.00 0.00 0.00 64 1005.7
20260504214740 56 244 5.0 11.0 0.00 0.00 0.00 63 1005.6
20260504214238 56 245 6.0 11.0 0.00 0.00 0.00 63 1005.6
20260504214012 56 269 6.0 13.0 0.00 0.00 0.00 63 1005.7
20260504213509 56 270 7.0 13.0 0.00 0.00 0.00 63 1005.7
20260504212739 56 250 7.0 13.0 0.00 0.00 0.00 63 1005.8
20260504212239 56 215 6.0 13.0 0.00 0.00 0.00 62 1005.7
20260504211739 56 228 6.0 12.0 0.00 0.00 0.00 62 1005.8
20260504211510 56 252 6.0 11.0 0.00 0.00 0.00 62 1005.7
20260504210740 56 207 6.0 11.0 0.00 0.00 0.00 62 1005.6
20260504210239 56 263 6.0 16.0 0.00 0.00 0.00 63 1005.8
20260504205738 56 259 7.0 16.0 0.00 0.00 0.00 61 1005.7
20260504205240 56 268 8.0 16.0 0.00 0.00 0.00 61 1005.6
20260504204739 56 247 8.0 16.0 0.00 0.00 0.00 60 1005.5
20260504204239 56 271 8.0 17.0 0.00 0.00 0.00 60 1005.5
20260504203737 56 209 8.0 17.0 0.00 0.00 0.00 59 1005.5
20260504203236 56 275 7.0 14.0 0.00 0.01 0.00 59 1005.5
20260504203008 57 293 6.0 14.0 0.00 0.01 0.00 59 1005.4
20260504202234 57 235 5.0 14.0 0.00 0.01 0.00 61 1005.4
20260504201736 57 225 6.0 14.0 0.00 0.01 0.00 61 1005.4
20260504201236 56 234 6.0 14.0 0.00 0.01 0.00 60 1005.5
20260504200734 56 267 7.0 13.0 0.00 0.02 0.00 62 1005.4
20260504200236 55 261 7.0 13.0 0.00 0.02 0.00 63 1005.5
20260504200006 55 234 6.0 12.0 0.00 0.02 0.00 63 1005.5
20260504195234 55 251 6.0 13.0 0.00 0.02 0.00 66 1005.5
20260504194737 55 206 6.0 13.0 0.00 0.02 0.00 66 1005.5
20260504194234 55 252 5.0 10.0 0.00 0.02 0.00 65 1005.5
20260504193734 55 224 5.0 10.0 0.00 0.02 0.00 65 1005.5
20260504193233 54 270 4.0 9.0 0.00 0.02 0.00 68 1005.4
20260504192739 52 271 4.0 10.0 0.00 0.02 0.00 69 1005.7
20260504192734 53 243 5.0 10.0 0.00 0.02 0.00 68 1005.5
20260504192003 52 232 4.0 10.0 0.00 0.02 0.00 72 1005.9
20260504191505 51 254 5.0 10.0 0.00 0.02 0.00 72 1005.9
20260504190732 51 258 4.0 9.0 0.00 0.02 0.00 73 1006.0
20260504190233 50 267 5.0 9.0 0.00 0.02 0.00 73 1006.1
20260504185733 50 210 5.0 13.0 0.00 0.02 0.00 73 1006.1
20260504185505 50 242 6.0 13.0 0.00 0.03 0.00 72 1006.3
20260504184733 50 246 7.0 15.0 0.00 0.03 0.00 71 1006.2
20260504184230 50 280 8.0 15.0 0.00 0.03 0.00 71 1006.2
20260504183732 51 286 7.0 14.0 0.00 0.03 0.00 69 1006.2
20260504183231 51 249 7.0 14.0 0.00 0.03 0.00 69 1006.1
20260504182730 51 244 8.0 15.0 0.00 0.04 0.00 67 1006.1
20260504182231 51 249 8.0 15.0 0.00 0.04 0.00 67 1006.0
20260504181730 51 251 7.0 15.0 0.00 0.05 0.00 68 1006.0
20260504181501 51 248 7.0 15.0 0.00 0.05 0.00 69 1006.0
20260504180730 51 271 6.0 13.0 0.00 0.06 0.00 69 1005.9
20260504180231 51 240 5.0 13.0 0.00 0.07 0.00 69 1005.8
20260504175730 51 218 5.0 16.0 0.00 0.07 0.00 70 1005.7
20260504175228 51 245 6.0 16.0 0.00 0.08 0.00 70 1005.8
20260504174728 51 276 7.0 16.0 0.00 0.09 0.00 69 1005.9
20260504174229 52 253 7.0 16.0 0.00 0.10 0.00 68 1005.8
20260504173728 52 240 7.0 14.0 0.00 0.11 0.00 66 1005.9
20260504173459 53 244 6.0 14.0 0.00 0.12 0.00 67 1005.8
20260504172733 53 194 7.0 19.0 0.00 0.13 0.00 66 1005.7
20260504172729 53 203 7.0 14.0 0.00 0.13 0.00 68 1005.7
20260504171728 54 223 8.0 19.0 0.00 0.13 0.00 65 1005.7
20260504171226 53 230 8.0 20.0 0.00 0.14 0.00 68 1005.7
20260504170727 53 174 9.0 20.0 0.00 0.15 0.00 67 1005.5
20260504170227 53 248 8.0 17.0 0.00 0.15 0.00 69 1005.5
20260504160224 53 240 7.0 19.0 0.00 0.22 0.00 63 1005.8
20260504150724 52 222 8.0 13.0 0.00 0.30 0.00 66 1006.7
20260504150453 52 222 9.0 14.0 0.00 0.31 0.00 65 1006.9
20260504140721 50 246 9.0 17.0 0.00 0.40 0.00 65 1007.4
20260504140220 50 231 7.0 15.0 0.00 0.40 0.00 66 1007.3
20260504130717 47 284 4.0 9.0 0.00 0.47 0.00 68 1007.5
20260504130216 47 218 4.0 11.0 0.00 0.48 0.00 69 1007.4
20260504120217 45 267 5.0 14.0 0.00 0.54 0.00 72 1007.8
20260504110715 42 256 3.0 8.0 0.00 0.65 0.00 81 1007.7
20260504110217 42 240 3.0 7.0 0.00 0.65 0.00 82 1007.7
20260504100445 37 245 2.0 4.0 0.00 0.76 0.00 87 1007.1
20260504081708 37 285 2.0 6.0 0.00 0.87 0.00 86 1006.5
20260504081701 37 259 2.0 7.0 0.00 0.86 0.00 86 1006.6
20260504080702 37 250 3.0 6.0 0.00 0.87 0.00 85 1006.5
20260504080202 37 251 2.0 8.0 0.00 0.88 0.00 85 1006.5
20260504070159 37 279 3.0 8.0 0.00 0.95 0.00 84 1006.1
20260504060155 36 242 2.0 8.0 0.00 1.02 0.00 85 1005.5
20260504050650 38 283 5.0 11.0 0.00 1.05 0.00 84 1005.2
20260504050150 38 264 5.0 12.0 0.00 1.05 0.00 84 1005.2
20260504045651 38 286 6.0 12.0 0.00 1.05 0.00 84 1005.2
20260504045421 38 286 5.0 11.0 0.00 1.05 0.00 84 1005.2
20260504044651 38 250 4.0 10.0 0.00 1.05 0.00 84 1005.1
20260504044151 38 281 4.0 10.0 0.00 1.05 0.00 84 1005.1
20260504043650 38 278 4.0 10.0 0.00 1.05 0.00 83 1005.1
20260504043150 38 286 5.0 10.0 0.00 1.06 0.00 83 1005.0
20260504042649 38 254 5.0 10.0 0.00 1.06 0.00 83 1005.0
20260504042149 38 270 4.0 11.0 0.00 1.06 0.00 83 1004.9
20260504041649 38 277 4.0 11.0 0.00 1.06 0.00 83 1004.9
20260504041148 38 272 5.0 11.0 0.00 1.06 0.00 83 1004.9
20260504040650 38 275 4.0 11.0 0.00 1.06 0.00 82 1004.8
20260504040150 38 258 4.0 10.0 0.00 1.06 0.00 82 1004.8
20260504035646 38 271 5.0 10.0 0.00 1.06 1.06 82 1004.7
20260504035148 38 268 4.0 10.0 0.00 1.06 1.06 82 1004.7
20260504034648 38 271 4.0 10.0 0.00 1.06 1.06 82 1004.6
20260504034147 38 294 4.0 10.0 0.00 1.06 1.06 82 1004.6
20260504033648 38 279 4.0 10.0 0.00 1.06 1.06 83 1004.6
20260504033417 38 277 4.0 10.0 0.00 1.06 1.06 83 1004.6
20260504032918 39 274 4.0 10.0 0.00 1.06 1.06 83 1004.6
20260504032147 39 254 4.0 10.0 0.00 1.06 1.06 83 1004.5
20260504031648 39 305 4.0 10.0 0.00 1.06 1.06 83 1004.5
20260504031418 39 266 5.0 10.0 0.00 1.06 1.06 83 1004.5
20260504031313 39 259 4.0 9.0 0.00 1.06 1.06 83 1004.4
20260504030421 39 262 4.0 9.0 0.00 1.06 1.06 83 1004.3
20260504025918 39 317 5.0 12.0 0.00 1.06 1.06 84 1004.2
20260504025148 39 271 5.0 12.0 0.00 1.06 1.06 84 1004.1
20260504024648 40 290 5.0 12.0 0.00 1.06 1.06 84 1004.2
20260504024147 40 283 5.0 12.0 0.00 1.06 1.06 85 1004.2
20260504023648 40 296 5.0 13.0 0.00 1.06 1.06 85 1004.2
20260504023147 40 286 5.0 13.0 0.00 1.06 1.06 86 1004.1
20260504022647 40 299 6.0 13.0 0.00 1.06 1.06 87 1004.1
20260504022147 40 304 6.0 13.0 0.00 1.06 1.06 88 1004.0
20260504021647 40 278 5.0 13.0 0.00 1.06 1.06 89 1003.9
20260504021147 40 295 5.0 13.0 0.00 1.06 1.06 90 1003.9
20260504020646 40 286 4.0 11.0 0.00 1.06 1.06 90 1004.0
20260504020146 40 284 4.0 11.0 0.00 1.06 1.06 91 1003.8
20260504015647 41 274 4.0 11.0 0.00 1.06 1.06 91 1003.8
20260504015149 41 235 4.0 9.0 0.00 1.06 1.06 91 1003.7
20260504014648 41 271 4.0 9.0 0.00 1.06 1.06 91 1003.7
20260504014147 41 270 4.0 9.0 0.00 1.06 1.06 92 1003.6
20260504013647 41 263 3.0 8.0 0.00 1.06 1.06 92 1003.5
20260504013419 41 261 3.0 8.0 0.00 1.06 1.06 91 1003.5
20260504012648 42 282 3.0 8.0 0.00 1.06 1.06 91 1003.4
20260504012146 42 274 3.0 8.0 0.00 1.06 1.06 91 1003.4
20260504011648 42 278 3.0 7.0 0.00 1.06 1.06 91 1003.3
20260504011146 42 279 3.0 6.0 0.00 1.06 1.06 91 1003.1
20260504010918 42 275 2.0 6.0 0.00 1.06 1.06 91 1003.1
20260504010148 42 270 2.0 7.0 0.00 1.06 1.06 91 1003.1
20260504005648 42 285 2.0 7.0 0.00 1.06 1.06 91 1002.9
20260504005148 42 286 2.0 7.0 0.00 1.06 1.06 91 1002.9
20260504004647 42 288 2.0 7.0 0.00 1.06 1.06 91 1002.9
20260504004148 42 266 2.0 5.0 0.00 1.06 1.06 91 1002.8
20260504003646 42 247 2.0 6.0 0.00 1.06 1.06 91 1002.8
20260504003145 42 275 2.0 6.0 0.00 1.06 1.06 91 1002.7
20260504002644 43 272 2.0 5.0 0.00 1.06 1.06 90 1002.7